Date,TemperatureHighF,TemperatureAvgF,TemperatureLowF,DewpointHighF,DewpointAvgF,DewpointLowF,HumidityHigh,HumidityAvg,HumidityLow,PressureMaxIn,PressureMinIn,WindSpeedMaxMPH,WindSpeedAvgMPH,GustSpeedMaxMPH,PrecipitationSumIn
2013-1-1,32,24,15,30,14,6,93,68,61,30.21,30.06,12,0,12,0.04
2013-1-2,33,20,10,21,11,2,81,66,59,30.24,30.12,9,2,9,0.00
2013-1-3,47,30,19,33,19,10,78,64,58,30.36,30.18,12,5,12,0.04
2013-1-4,47,32,22,33,22,16,81,66,58,30.42,30.27,10,4,10,0.04
2013-1-5,46,36,27,32,23,15,62,61,58,30.27,30.09,14,5,14,0.00
2013-1-6,41,33,22,28,21,12,71,62,60,30.36,30.06,24,8,24,0.00
2013-1-7,43,31,20,30,20,12,80,64,59,30.36,30.12,16,7,16,0.00
2013-1-8,53,39,24,39,28,16,83,63,57,30.18,30.06,13,6,13,0.00
2013-1-9,60,47,38,47,37,26,98,70,54,30.44,30.12,14,4,14,0.00
2013-1-10,58,45,39,58,41,26,100,85,60,30.42,29.74,14,5,14,0.51
2013-1-11,62,54,48,55,44,40,100,70,54,29.85,29.74,17,9,17,0.12
2013-1-12,61,48,32,47,39,27,86,73,54,29.91,29.80,23,8,23,1.38
2013-1-13,32,25,16,27,17,8,84,71,62,30.30,29.85,0,0,0,0.00
2013-1-14,30,20,15,18,12,7,81,70,62,30.44,30.30,0,0,0,0.00
2013-1-15,30,23,13,19,14,8,85,70,62,30.36,30.09,0,0,0,0.00
2013-1-16,48,31,17,34,21,12,83,66,58,30.12,30.00,12,2,12,0.00
2013-1-17,43,34,24,30,22,14,75,63,59,30.44,30.09,19,7,19,0.00
2013-1-18,51,36,21,36,24,14,79,63,57,30.44,30.09,17,8,17,0.00
2013-1-19,68,50,38,52,36,26,60,57,53,30.12,29.88,20,10,20,0.00
2013-1-20,46,33,25,32,21,14,63,61,58,30.30,30.09,24,9,24,0.00
2013-1-21,33,22,13,21,10,3,64,62,61,30.36,30.24,22,11,22,0.00
2013-1-22,21,16,12,10,5,2,66,63,61,30.42,30.33,13,4,13,0.00
2013-1-23,48,28,11,34,17,2,78,63,58,30.33,30.09,16,5,16,0.00
2013-1-24,29,22,14,18,12,4,63,62,61,30.53,30.21,18,7,18,0.00
2013-1-25,49,34,26,34,22,14,63,61,58,30.21,30.06,16,5,16,0.00
2013-1-26,44,31,23,30,19,13,63,62,59,30.36,30.18,10,4,10,0.00
2013-1-27,47,37,25,46,34,14,100,89,62,30.27,29.94,17,8,17,0.08
2013-1-28,68,58,47,57,52,46,100,82,59,29.97,29.85,20,8,20,0.00
2013-1-29,66,61,52,56,53,48,97,76,59,29.85,29.44,24,11,24,1.65
2013-1-30,52,40,27,52,32,16,99,73,58,29.88,29.35,29,12,29,0.16
2013-1-31,37,25,11,25,14,1,74,62,60,30.33,29.88,26,12,26,0.00
2013-2-1,36,20,7,24,9,-3,63,62,61,30.44,30.21,20,7,20,0.00
2013-2-2,48,34,26,34,22,14,77,61,58,30.21,30.03,24,9,24,0.00
2013-2-3,44,31,24,30,22,13,91,70,59,30.15,29.97,23,7,23,0.04
2013-2-4,63,39,23,46,27,12,74,61,54,29.97,29.74,17,8,17,0.00
2013-2-5,62,39,24,45,29,18,85,66,54,30.09,29.85,18,5,18,0.00
2013-2-6,54,39,26,39,29,21,91,68,57,30.21,30.03,13,5,13,0.00
2013-2-7,57,44,34,43,35,26,85,70,56,30.09,29.80,21,7,21,0.04
2013-2-8,40,34,29,34,25,20,83,69,60,30.33,29.97,23,9,23,0.00
2013-2-9,44,35,29,32,24,19,83,66,59,30.33,30.00,15,6,15,0.12
2013-2-10,54,45,36,51,40,32,99,82,57,30.00,29.59,23,10,23,0.83
2013-2-11,56,43,33,41,30,21,61,59,56,30.09,29.74,26,10,26,0.00
2013-2-12,50,38,26,36,26,16,77,62,58,30.12,29.91,8,2,8,0.00
2013-2-13,61,45,35,44,32,24,71,61,54,29.91,29.77,16,5,16,0.00
2013-2-14,64,47,36,47,33,24,61,58,53,30.03,29.80,17,8,17,0.00
2013-2-15,46,36,28,32,24,16,64,61,58,30.21,30.03,21,9,21,0.00
2013-2-16,44,30,20,31,18,9,64,61,59,30.21,30.12,16,7,16,0.00
2013-2-17,49,34,20,34,22,8,64,61,58,30.15,29.88,20,6,20,0.00
2013-2-18,56,44,34,45,33,22,86,66,56,29.88,29.56,25,13,25,0.08
2013-2-19,43,31,22,30,20,10,63,61,59,30.24,29.85,27,12,27,0.00
2013-2-20,31,22,17,20,11,6,67,62,61,30.36,30.24,13,5,15,0.00
2013-2-21,32,25,17,30,18,7,93,75,63,30.27,29.80,16,5,16,0.00
2013-2-22,43,32,23,32,25,12,100,75,59,30.03,29.77,14,5,14,0.04
2013-2-23,48,30,17,33,19,10,77,64,58,30.03,29.94,12,4,12,0.20
2013-2-24,50,32,18,35,22,11,85,67,58,30.09,29.97,10,2,10,0.00
2013-2-25,51,37,26,36,27,20,82,68,57,30.03,29.56,14,5,16,0.21
2013-2-26,48,38,33,42,34,28,100,86,58,29.65,29.32,15,6,15,0.75
2013-2-27,37,33,31,29,26,24,85,76,63,29.85,29.62,17,9,17,0.00
2013-2-28,36,32,31,27,24,22,83,72,61,30.06,29.83,16,9,16,0.00
2013-3-1,35,31,28,27,24,20,84,75,61,30.15,30.03,16,8,16,0.04
2013-3-2,36,29,22,24,18,11,74,65,61,30.21,30.12,17,10,17,0.00
2013-3-3,46,31,16,32,20,9,82,65,58,30.18,30.00,9,3,9,0.00
2013-3-4,52,42,33,38,29,21,71,61,57,30.00,29.74,21,7,21,0.00
2013-3-5,42,35,31,30,25,20,85,66,59,30.06,29.74,27,12,27,0.12
2013-3-6,48,34,23,34,22,13,66,61,58,30.30,30.06,24,11,24,0.00
2013-3-7,50,34,20,36,24,13,85,68,58,30.36,30.24,9,3,9,0.00
2013-3-8,56,40,26,40,30,21,85,66,56,30.39,30.18,13,5,13,0.00
2013-3-9,66,51,40,48,36,28,77,59,53,30.18,29.80,23,9,23,0.12
2013-3-10,58,53,46,50,44,39,93,72,56,29.80,29.62,23,9,23,0.55
2013-3-11,46,36,33,42,27,21,87,69,60,29.94,29.68,23,10,23,0.00
2013-3-12,58,39,27,43,27,17,74,62,56,30.15,29.94,26,10,26,0.00
2013-3-13,48,35,26,34,23,15,67,61,58,30.36,30.15,22,11,22,0.00
2013-3-14,48,35,24,34,23,14,63,61,58,30.36,30.06,18,6,18,0.00
2013-3-15,77,52,29,58,39,23,84,64,53,30.06,29.65,14,4,14,0.00
2013-3-16,62,48,37,45,36,29,83,63,54,30.00,29.62,21,9,21,0.00
2013-3-17,38,35,32,35,30,26,97,84,70,30.06,29.74,12,4,12,1.57
2013-3-18,51,41,36,40,34,25,98,77,57,29.97,29.65,23,7,23,0.92
2013-3-19,56,40,28,40,27,16,62,60,56,30.18,29.97,18,7,18,0.00
2013-3-20,42,33,24,29,21,13,75,62,59,30.21,30.06,26,11,26,0.00
2013-3-21,44,30,18,30,18,7,64,61,59,30.09,29.94,10,4,10,0.00
2013-3-22,45,36,30,32,24,19,62,61,58,30.00,29.94,9,2,9,0.00
2013-3-23,55,44,35,40,30,23,61,59,56,30.00,29.80,9,4,9,0.00
2013-3-24,43,34,31,32,29,26,92,83,59,29.80,29.50,15,3,15,0.04
2013-3-25,50,34,29,36,25,19,88,69,58,30.15,29.77,23,6,23,0.08
2013-3-26,54,37,27,39,25,15,64,61,56,30.30,30.15,16,7,16,0.28
2013-3-27,58,38,22,42,27,13,82,63,56,30.36,30.27,9,2,9,0.00
2013-3-28,60,46,34,44,32,22,61,58,54,30.33,30.18,13,4,13,0.00
2013-3-29,68,52,41,52,39,32,80,63,53,30.21,30.15,12,4,12,0.00
2013-3-30,55,46,39,44,40,35,100,82,56,30.18,29.88,16,4,17,0.16
2013-3-31,75,57,46,57,47,36,98,71,53,29.88,29.83,16,6,16,0.00
2013-4-1,58,44,33,42,31,21,61,59,56,30.18,29.88,20,9,20,0.00
2013-4-2,58,40,25,42,27,14,63,60,56,30.30,30.18,10,4,10,0.00
2013-4-3,57,42,27,42,29,16,62,59,56,30.33,30.21,13,3,13,0.00
2013-4-4,66,47,29,48,32,17,62,58,53,30.21,30.00,9,2,9,0.00
2013-4-5,74,53,37,56,38,24,60,57,53,30.12,30.00,14,4,14,0.00
2013-4-6,73,60,46,56,44,32,58,56,53,30.00,29.71,25,11,25,0.00
2013-4-7,83,67,53,64,50,39,60,55,51,29.91,29.80,15,6,15,0.00
2013-4-8,81,68,59,61,52,45,69,57,52,29.88,29.74,18,10,18,0.00
2013-4-9,77,68,62,58,53,48,68,58,53,29.88,29.83,23,8,23,0.00
2013-4-10,85,71,60,65,58,53,88,65,51,29.83,29.65,26,9,26,1.30
2013-4-11,61,49,38,59,38,26,93,68,57,29.77,29.65,18,8,18,0.04
2013-4-12,55,43,35,40,30,19,63,59,56,29.97,29.71,19,7,19,0.00
2013-4-13,70,51,33,53,37,23,76,60,53,30.03,29.85,15,5,15,0.00
2013-4-14,79,61,44,60,45,34,72,57,53,29.85,29.62,25,10,25,0.00
2013-4-15,73,63,53,56,50,44,79,63,54,29.88,29.71,14,7,14,0.00
2013-4-16,54,48,45,47,43,41,94,84,73,30.12,29.85,23,7,23,1.26
2013-4-17,83,64,48,64,53,42,98,70,51,30.06,29.71,23,7,23,0.00
2013-4-18,74,60,41,62,51,28,100,74,54,29.77,29.59,30,11,30,3.54
2013-4-19,56,43,37,40,30,24,60,59,56,30.03,29.74,24,11,24,0.00
2013-4-20,63,46,30,46,33,19,73,59,54,30.27,30.03,13,4,13,0.00
2013-4-21,68,52,38,49,37,25,60,57,53,30.36,30.21,14,5,14,0.00
2013-4-22,74,58,40,56,43,28,62,56,53,30.24,29.97,16,6,16,0.00
2013-4-23,60,52,40,53,43,35,86,73,56,30.00,29.83,24,6,24,1.34
2013-4-24,62,46,38,45,35,25,86,67,54,30.21,29.94,20,8,20,0.16
2013-4-25,71,52,36,54,38,24,68,57,53,30.30,30.18,17,5,18,0.00
2013-4-26,58,51,45,43,38,31,75,60,56,30.36,30.21,17,6,17,0.00
2013-4-27,56,52,48,51,47,42,92,85,75,30.24,29.88,8,2,8,0.24
2013-4-28,61,55,48,52,48,42,98,79,54,29.91,29.83,15,5,15,0.04
2013-4-29,78,62,46,60,52,44,100,72,53,29.91,29.80,17,7,17,0.00
2013-4-30,88,72,59,68,57,49,78,61,51,29.94,29.80,17,8,17,0.00
2013-5-1,88,72,58,67,56,47,77,59,51,30.09,29.94,11,4,11,0.00
2013-5-2,80,63,47,67,53,41,86,70,52,30.12,30.03,16,6,16,0.75
2013-5-3,46,43,41,41,38,37,88,84,80,30.09,29.80,13,6,13,1.93
2013-5-4,56,46,40,40,37,34,90,73,56,29.97,29.80,8,2,8,0.04
2013-5-5,61,53,44,53,47,39,94,83,65,29.94,29.85,14,5,14,0.16
2013-5-6,69,60,52,53,49,46,89,70,56,29.94,29.85,15,5,15,0.00
2013-5-7,85,65,53,65,53,48,88,67,51,30.00,29.94,15,1,15,0.00
2013-5-8,90,69,52,69,56,47,86,64,50,30.03,29.94,10,3,10,0.00
2013-5-9,76,68,63,60,54,50,78,62,53,29.97,29.83,14,5,14,0.04
2013-5-10,73,63,55,60,52,44,93,70,54,30.00,29.83,17,7,17,0.12
2013-5-11,76,60,50,58,47,35,81,62,53,30.12,29.97,24,8,24,0.00
2013-5-12,68,53,39,52,38,26,65,57,53,30.18,30.09,16,6,16,0.00
2013-5-13,79,59,39,61,44,28,76,58,53,30.18,30.00,10,4,10,0.00
2013-5-14,96,75,53,74,57,40,70,54,49,30.03,29.83,14,6,14,0.00
2013-5-15,94,78,65,72,60,48,58,53,49,29.94,29.85,14,7,14,0.00
2013-5-16,84,70,63,63,57,50,78,63,51,29.97,29.88,16,4,16,0.08
2013-5-17,81,69,62,62,57,53,79,66,52,29.97,29.94,9,3,9,0.00
2013-5-18,86,72,61,66,60,55,92,67,51,30.00,29.91,9,3,9,0.00
2013-5-19,92,78,68,70,63,57,78,60,49,29.94,29.80,18,8,18,0.00
2013-5-20,80,72,62,64,59,54,88,66,52,29.94,29.74,24,8,24,0.87
2013-5-21,83,69,62,63,58,53,92,70,52,29.85,29.71,14,7,14,0.16
2013-5-22,82,69,60,62,55,46,86,64,52,29.88,29.68,14,5,14,0.00
2013-5-23,67,61,54,54,48,44,78,63,53,30.21,29.85,17,7,17,0.00
2013-5-24,77,59,44,59,45,33,83,62,53,30.36,30.18,10,2,10,0.00
2013-5-25,70,60,47,55,47,37,79,62,53,30.33,30.09,12,3,12,0.04
2013-5-26,86,70,55,66,54,42,71,58,51,30.18,30.03,13,6,13,0.00
2013-5-27,84,71,65,64,58,51,90,63,51,30.03,29.80,17,8,17,0.71
2013-5-28,84,73,66,64,59,53,82,63,51,29.91,29.83,19,8,19,0.12
2013-5-29,87,76,66,67,60,52,77,57,51,29.97,29.83,17,8,17,0.00
2013-5-30,81,73,64,65,61,54,86,66,52,29.94,29.83,21,9,21,0.39
2013-5-31,80,70,63,66,61,54,96,74,53,29.94,29.77,25,9,26,3.39
2013-6-1,76,67,60,64,59,48,99,77,53,29.88,29.71,17,7,17,0.75
2013-6-2,71,63,57,54,51,47,78,65,54,30.03,29.85,14,6,14,0.00
2013-6-3,77,63,54,59,51,45,83,66,53,30.09,29.97,8,2,8,0.00
2013-6-4,86,66,50,66,53,46,89,65,51,30.09,30.00,10,2,10,0.00
2013-6-5,89,71,59,68,58,53,87,66,50,30.00,29.85,9,2,9,0.00
2013-6-6,85,72,65,65,57,48,80,59,51,29.88,29.83,14,6,14,0.00
2013-6-7,80,68,58,61,53,47,81,61,52,29.91,29.85,15,5,15,0.00
2013-6-8,87,69,56,66,55,49,85,63,51,29.97,29.91,8,2,8,0.00
2013-6-9,80,68,61,61,56,51,89,66,52,29.97,29.80,15,5,15,0.04
2013-6-10,82,70,61,63,59,53,97,71,52,29.91,29.80,13,4,13,0.08
2013-6-11,97,78,60,75,62,55,94,62,49,29.97,29.85,15,4,15,0.00
2013-6-12,95,84,70,73,66,61,79,56,49,29.97,29.74,17,6,17,0.00
2013-6-13,85,76,63,65,58,50,71,55,51,30.00,29.77,23,7,23,0.00
2013-6-14,91,73,59,70,58,50,80,60,50,30.09,29.97,10,2,10,0.00
2013-6-15,94,77,66,72,61,52,80,60,49,30.09,29.94,17,5,17,0.20
2013-6-16,85,74,67,69,64,61,91,73,51,30.06,29.91,8,2,8,0.20
2013-6-17,90,73,64,70,64,56,90,76,50,29.97,29.85,26,2,26,1.65
2013-6-18,94,75,61,72,62,52,96,68,49,29.97,29.91,11,3,11,0.04
2013-6-19,93,76,63,71,62,55,88,64,49,30.06,29.97,10,1,10,0.00
2013-6-20,95,78,65,73,64,58,86,62,49,30.12,30.06,10,3,10,0.00
2013-6-21,94,82,71,72,66,59,81,60,49,30.12,30.00,14,6,14,0.00
2013-6-22,93,75,66,71,64,58,83,68,49,30.12,30.00,14,6,14,0.94
2013-6-23,90,73,65,69,64,57,90,73,50,30.09,29.94,17,5,17,1.34
2013-6-24,96,79,66,73,66,62,92,67,49,30.09,29.94,10,5,10,0.04
2013-6-25,96,83,74,74,67,63,76,61,49,30.00,29.80,15,7,15,0.00
2013-6-26,93,79,72,71,67,61,86,70,49,29.88,29.74,26,5,26,1.02
2013-6-27,98,81,71,75,67,59,89,65,47,29.88,29.77,24,5,24,0.00
2013-6-28,93,79,71,71,64,54,82,61,49,29.85,29.71,20,6,20,0.00
2013-6-29,86,72,65,66,57,50,78,60,51,29.74,29.68,27,7,27,0.16
2013-6-30,79,68,64,63,58,54,82,72,53,29.91,29.74,14,6,14,0.31
2013-7-1,79,68,61,61,54,46,76,61,53,29.97,29.91,16,6,16,0.04
2013-7-2,66,62,60,58,56,54,89,82,69,30.06,29.94,12,5,12,1.38
2013-7-3,90,71,60,68,59,53,92,69,50,30.09,30.00,8,2,8,0.00
2013-7-4,93,74,60,71,60,53,86,62,49,30.12,30.03,8,2,8,0.00
2013-7-5,89,74,64,68,62,57,97,69,50,30.09,30.00,9,3,9,0.00
2013-7-6,94,76,66,72,63,53,90,66,49,30.06,29.97,12,3,12,0.00
2013-7-7,96,78,65,74,63,57,84,62,49,30.06,30.00,10,6,10,0.00
2013-7-8,97,82,70,74,66,59,79,61,49,30.12,30.00,12,5,12,0.00
2013-7-9,99,85,75,75,68,64,72,58,47,30.06,29.94,9,5,9,0.00
2013-7-10,90,79,72,70,66,62,85,67,50,30.00,29.91,20,4,20,0.19
2013-7-11,88,74,61,67,60,52,79,63,51,30.09,29.97,8,3,8,0.00
2013-7-12,95,74,60,73,60,51,87,64,49,30.15,30.03,6,1,6,0.00
2013-7-13,95,74,60,72,60,53,85,63,49,30.12,30.03,6,1,6,0.00
2013-7-14,96,77,63,74,64,56,84,66,49,30.18,30.06,9,2,9,0.02
2013-7-15,96,79,70,74,68,64,88,70,49,30.24,30.15,9,2,9,0.00
2013-7-16,98,87,75,75,68,61,74,54,47,30.33,30.24,10,3,10,0.00
2013-7-17,103,84,71,78,69,64,88,64,46,30.36,30.21,6,1,6,0.00
2013-7-18,105,86,72,80,70,64,84,62,46,30.24,30.06,8,2,8,0.00
2013-7-19,100,84,73,76,68,61,77,60,47,30.06,29.91,9,5,9,0.00
2013-7-20,101,81,70,77,68,61,86,65,46,29.97,29.83,15,5,15,0.28
2013-7-21,86,75,70,70,67,63,95,77,51,30.00,29.88,8,2,8,0.04
2013-7-22,96,80,69,73,68,62,93,69,49,29.94,29.83,8,2,8,0.00
2013-7-23,98,82,71,75,66,56,82,61,47,29.97,29.80,11,4,11,0.00
2013-7-24,86,73,61,65,56,47,69,56,51,30.09,29.94,10,4,10,0.00
2013-7-25,90,71,57,68,57,50,81,62,50,30.18,30.09,8,1,8,0.00
2013-7-26,73,69,63,65,59,49,84,70,54,30.15,30.03,9,4,9,0.04
2013-7-27,82,69,57,64,56,45,92,64,52,30.09,30.00,15,5,15,0.00
2013-7-28,89,68,52,68,54,46,86,64,50,30.15,30.06,12,3,12,0.00
2013-7-29,77,68,57,61,57,52,90,67,53,30.24,30.12,8,2,8,0.00
2013-7-30,73,69,65,68,63,57,92,81,70,30.21,30.09,9,3,9,0.12
2013-7-31,85,74,66,71,65,56,99,76,51,30.15,30.09,14,3,14,0.00
2013-8-1,93,75,64,71,62,54,97,68,49,30.21,30.09,10,3,10,0.00
2013-8-2,88,74,65,69,62,51,94,67,51,30.12,30.03,9,4,9,0.24
2013-8-3,90,76,66,71,65,54,99,72,50,30.24,30.06,9,3,9,0.00
2013-8-4,89,72,61,68,59,52,88,65,50,30.33,30.21,6,1,6,0.00
2013-8-5,73,68,64,67,60,53,93,75,54,30.24,30.06,14,5,14,0.00
2013-8-6,91,77,69,73,67,60,100,75,50,30.09,30.03,10,4,10,0.00
2013-8-7,91,77,70,71,66,60,98,73,50,30.09,30.00,13,4,13,0.00
2013-8-8,88,76,69,70,67,63,94,75,51,30.15,30.06,8,1,8,0.00
2013-8-9,90,75,68,69,65,59,97,73,50,30.24,30.12,6,0,6,0.00
2013-8-10,93,76,65,71,62,53,83,64,49,30.33,30.24,12,2,12,0.00
2013-8-11,96,74,60,73,60,52,87,63,49,30.36,30.24,6,1,6,0.00
2013-8-12,84,73,66,70,64,56,85,72,54,30.30,30.12,6,1,6,0.04
2013-8-13,85,71,61,67,59,46,94,67,51,30.36,30.18,9,3,9,0.00
2013-8-14,83,64,52,63,52,45,84,64,52,30.42,30.33,8,2,8,0.00
2013-8-15,86,65,53,66,53,48,84,67,51,30.39,30.30,6,1,6,0.00
2013-8-16,80,66,53,61,54,48,86,67,52,30.39,30.33,7,1,7,0.00
2013-8-17,90,71,56,68,57,50,84,65,50,30.42,30.36,8,2,8,0.00
2013-8-18,91,72,63,70,60,55,83,68,50,30.42,30.33,8,2,8,0.08
2013-8-19,95,75,61,73,62,56,94,67,49,30.39,30.27,8,1,8,0.00
2013-8-20,97,77,63,75,63,58,94,66,49,30.36,30.30,6,2,6,0.00
2013-8-21,98,79,65,75,64,58,86,63,47,30.39,30.30,9,4,9,0.00
2013-8-22,97,81,70,74,66,61,76,62,49,30.36,30.27,10,3,10,0.00
2013-8-23,98,80,70,75,66,58,84,65,47,30.39,30.30,6,1,6,0.00
2013-8-24,99,78,65,75,65,57,90,65,47,30.48,30.36,8,2,8,0.00
2013-8-25,100,79,65,76,65,58,87,63,47,30.53,30.42,12,3,12,0.00
2013-8-26,102,83,71,77,69,60,94,64,46,30.48,30.33,11,5,11,0.00
2013-8-27,100,88,76,76,68,58,59,51,47,30.36,30.27,10,4,10,0.00
2013-8-28,102,78,69,77,65,60,79,65,46,30.33,30.27,13,4,13,0.00
2013-8-29,104,86,70,79,69,61,77,58,46,30.33,30.24,11,2,11,0.00
2013-8-30,105,85,71,80,69,63,78,60,46,30.27,30.12,10,3,10,0.00
2013-8-31,104,87,76,79,69,59,74,56,46,30.15,30.00,12,4,12,0.00
2013-9-1,99,82,73,76,66,59,79,61,47,30.12,30.06,17,2,17,0.00
2013-9-2,92,76,64,70,60,51,76,58,50,30.24,30.12,13,5,13,0.00
2013-9-3,91,71,57,70,58,50,83,64,50,30.36,30.24,10,2,10,0.00
2013-9-4,96,72,57,74,59,51,86,64,49,30.44,30.36,8,2,8,0.00
2013-9-5,96,74,58,73,59,49,85,61,49,30.50,30.39,8,1,8,0.00
2013-9-6,95,76,62,73,61,54,83,62,49,30.48,30.30,10,2,10,0.00
2013-9-7,99,78,62,75,63,56,86,61,47,30.36,30.21,10,4,10,0.00
2013-9-8,82,75,71,70,64,56,88,68,53,30.30,30.18,12,4,12,0.28
2013-9-9,103,84,71,78,69,60,94,64,46,30.27,30.21,10,4,10,0.00
2013-9-10,102,85,75,78,66,59,66,55,46,30.39,30.27,10,4,10,0.00
2013-9-11,103,84,70,78,66,58,79,56,46,30.44,30.33,9,4,9,0.00
2013-9-12,90,77,66,69,61,47,78,58,50,30.39,30.27,15,4,15,0.04
2013-9-13,84,66,53,63,50,39,70,56,51,30.42,30.33,11,4,11,0.00
2013-9-14,85,61,47,65,48,39,83,63,51,30.48,30.33,12,2,12,0.00
2013-9-15,87,68,51,67,53,40,76,58,51,30.39,30.30,10,4,10,0.00
2013-9-16,76,65,58,60,53,46,79,67,53,30.53,30.39,8,4,8,0.00
2013-9-17,78,65,56,60,54,48,79,69,53,30.53,30.36,6,1,6,0.00
2013-9-18,92,73,65,71,63,57,93,73,49,30.39,30.24,10,3,10,0.51
2013-9-19,91,78,70,70,66,61,94,68,50,30.30,30.15,13,6,13,0.04
2013-9-20,75,69,60,67,62,48,89,78,63,30.24,30.18,12,3,12,0.20
2013-9-21,75,61,52,56,50,44,89,68,50,30.27,30.18,15,4,15,0.00
2013-9-22,83,62,48,64,51,44,89,69,51,30.33,30.24,8,1,8,0.00
2013-9-23,84,63,49,64,50,43,87,64,51,30.33,30.21,12,2,12,0.00
2013-9-24,86,67,53,65,55,44,80,66,51,30.27,30.12,13,4,13,0.00
2013-9-25,90,72,60,69,60,53,90,69,50,30.18,30.12,7,1,7,0.00
2013-9-26,92,72,60,70,59,50,93,67,50,30.33,30.18,8,2,8,0.00
2013-9-27,89,70,58,68,56,47,83,62,50,30.44,30.33,9,3,9,0.00
2013-9-28,84,72,60,64,56,46,79,58,51,30.39,30.27,21,8,21,0.20
2013-9-29,79,65,55,64,54,46,87,68,53,30.42,30.30,15,4,15,0.20
2013-9-30,82,65,52,62,56,47,97,75,52,30.33,30.24,13,4,13,0.00
2013-10-1,83,70,63,67,62,58,100,80,51,30.39,30.30,9,5,9,0.00
2013-10-2,88,73,66,73,65,56,100,77,51,30.44,30.36,12,4,12,0.00
2013-10-3,87,75,68,67,62,57,88,66,51,30.39,30.27,17,7,17,0.00
2013-10-4,89,76,67,68,64,58,98,70,50,30.42,30.33,15,6,15,0.00
2013-10-5,81,71,55,69,61,48,97,74,52,30.42,30.30,13,5,13,0.00
2013-10-6,66,55,49,49,43,36,86,66,53,30.39,30.30,16,6,16,0.04
2013-10-7,74,57,49,56,44,38,77,62,53,30.65,30.39,14,5,14,0.00
2013-10-8,80,60,46,61,48,40,86,66,52,30.71,30.62,12,2,12,0.00
2013-10-9,82,60,43,63,48,38,85,65,52,30.71,30.62,8,2,8,0.00
2013-10-10,82,64,52,62,53,48,93,69,52,30.71,30.56,10,2,10,0.00
2013-10-11,82,66,56,63,55,47,100,71,52,30.62,30.50,15,5,15,0.00
2013-10-12,79,65,52,64,54,39,90,68,53,30.80,30.53,12,4,12,0.35
2013-10-13,77,59,46,59,44,34,74,57,53,30.98,30.80,12,3,12,0.00
2013-10-14,71,56,44,54,42,32,72,60,53,30.98,30.77,8,2,8,0.00
2013-10-15,68,62,56,62,56,45,99,80,63,30.68,30.56,15,5,15,0.63
2013-10-16,65,53,44,48,40,35,80,62,53,30.74,30.65,18,5,18,0.00
2013-10-17,68,53,44,51,42,36,87,69,53,30.71,30.62,13,2,13,0.00
2013-10-18,66,53,44,49,40,35,82,62,53,30.77,30.68,12,6,12,0.00
2013-10-19,61,48,40,44,38,32,87,67,54,30.74,30.68,13,5,13,0.20
2013-10-20,72,56,43,54,40,31,67,57,53,30.71,30.62,16,8,16,0.00
2013-10-21,60,50,37,44,37,27,73,61,54,30.83,30.68,14,5,14,0.00
2013-10-22,60,45,34,44,35,28,84,67,54,30.83,30.56,24,7,24,0.00
2013-10-23,54,44,36,39,32,26,76,64,57,30.92,30.74,20,7,20,0.00
2013-10-24,53,40,29,38,30,18,83,65,57,31.21,30.89,24,6,24,0.00
2013-10-25,60,41,27,44,30,18,83,65,54,31.27,28.91,12,4,12,0.00
2013-10-26,68,51,37,50,36,24,60,57,53,31.04,30.83,16,7,16,0.00
2013-10-27,66,45,31,48,32,22,78,61,53,30.98,30.86,8,2,8,0.00
2013-10-28,72,51,34,55,38,24,82,61,52,31.09,30.92,8,2,8,0.00
2013-10-29,57,51,46,57,44,32,100,77,58,31.12,30.95,9,4,9,0.20
2013-10-30,74,64,57,68,58,53,100,83,54,30.98,30.80,15,6,15,0.08
2013-10-31,68,61,48,62,56,42,96,83,61,30.80,27.29,24,8,24,0.91
2013-11-1,65,53,46,47,42,33,90,68,53,27.29,27.29,20,6,20,0.00
2013-11-2,58,47,37,42,35,28,76,65,56,27.29,27.29,16,6,16,0.00
2013-11-3,61,46,33,44,35,28,89,67,54,27.29,27.29,14,4,14,0.00
2013-11-4,57,50,44,44,36,31,80,58,56,27.29,27.29,18,7,18,0.00
2013-11-5,60,54,50,50,45,39,92,71,56,27.29,27.29,21,6,21,0.20
2013-11-6,61,49,36,54,42,30,94,79,59,30.24,27.29,20,10,20,0.39
2013-11-7,58,42,30,43,32,25,87,70,56,30.36,30.21,12,3,12,0.00
2013-11-8,60,44,29,44,33,24,85,65,56,30.33,30.06,16,6,16,0.00
2013-11-9,70,54,44,54,39,30,59,57,52,30.18,30.03,15,6,15,0.00
2013-11-10,60,47,38,44,33,25,60,58,54,30.39,30.18,12,4,12,0.00
2013-11-11,70,48,34,53,35,27,83,63,53,30.42,30.06,23,8,23,0.08
2013-11-12,40,29,20,27,18,10,79,63,60,30.71,30.42,18,7,18,0.00
2013-11-13,49,32,18,35,21,10,83,66,58,30.65,30.27,12,5,12,0.00
2013-11-14,58,43,28,43,29,16,62,59,56,30.27,30.00,16,8,16,0.00
2013-11-15,56,49,44,41,35,30,78,60,56,30.03,29.91,12,7,12,0.00
2013-11-16,64,56,47,60,48,40,93,75,57,29.91,29.62,21,10,21,0.20
2013-11-17,77,64,48,62,52,34,96,66,52,29.97,29.38,34,13,35,0.04
2013-11-18,59,46,33,44,33,21,74,61,56,30.27,29.97,20,5,20,0.00
2013-11-19,54,38,30,39,26,18,72,61,57,30.33,30.18,8,2,8,0.00
2013-11-20,48,39,28,34,28,18,74,65,58,30.18,30.00,13,5,13,0.00
2013-11-21,50,48,46,49,43,34,97,85,58,30.15,30.03,14,3,14,0.28
2013-11-22,50,40,34,49,34,25,97,81,65,30.48,30.15,17,9,17,0.00
2013-11-23,38,28,18,27,18,7,78,65,60,30.65,30.44,23,10,23,0.00
2013-11-24,35,22,12,23,12,3,74,63,61,30.71,30.39,8,3,8,0.00
2013-11-25,36,31,25,24,19,14,63,62,61,30.42,30.12,12,5,12,0.00
2013-11-26,48,33,22,34,21,11,67,61,58,30.21,30.03,24,9,24,0.00
2013-11-27,34,23,16,22,12,6,63,61,61,30.33,30.18,20,9,20,0.00
2013-11-28,52,33,19,38,21,8,64,60,57,30.44,30.21,14,6,14,0.00
2013-11-29,48,33,19,33,21,9,73,62,58,30.53,30.36,9,3,9,0.00
2013-11-30,59,42,28,44,30,20,83,64,56,30.36,30.06,14,6,14,0.00
2013-12-1,64,46,35,46,34,27,81,63,53,30.09,29.85,8,3,8,0.00
2013-12-2,61,46,34,45,36,26,92,71,54,29.88,29.68,8,3,8,0.00
2013-12-3,57,50,45,51,46,43,100,88,61,29.71,29.62,12,6,12,0.00
2013-12-4,66,54,43,58,46,30,100,76,53,29.83,29.50,18,8,18,0.00
2013-12-5,43,28,21,29,17,11,76,63,59,30.27,29.83,16,9,16,0.00
2013-12-6,22,20,14,15,9,4,76,64,61,30.53,30.21,18,10,19,0.00
2013-12-7,31,17,8,19,6,-2,63,62,61,30.65,30.42,11,4,11,0.00
2013-12-8,30,24,18,22,17,9,83,74,61,30.42,29.97,8,4,8,0.00
2013-12-9,32,26,21,23,16,10,83,66,61,30.30,30.06,21,7,21,0.00
2013-12-10,43,26,13,30,14,3,65,62,59,30.30,30.21,16,5,16,0.00
2013-12-11,40,23,10,28,13,0,76,63,60,30.59,30.27,20,7,20,0.04
2013-12-12,37,20,5,25,9,-5,63,62,60,30.59,30.24,13,5,13,0.00
2013-12-13,34,27,17,29,19,7,88,71,61,30.24,29.94,13,5,13,0.16
2013-12-14,39,32,27,34,27,20,92,83,65,30.09,29.83,21,7,21,0.08
2013-12-15,40,29,23,28,20,14,76,68,60,30.18,30.00,18,6,18,0.04
2013-12-16,47,33,25,35,25,20,83,71,58,30.09,29.97,10,4,10,0.16
2013-12-17,49,33,24,35,24,18,83,68,58,30.24,30.09,21,6,21,0.00
2013-12-18,49,37,23,35,24,12,66,60,58,30.24,29.91,18,8,18,0.00
2013-12-19,60,49,40,45,39,31,81,68,56,29.94,29.80,17,9,17,0.00
2013-12-20,69,54,38,53,44,33,81,70,53,29.85,29.68,17,9,17,0.31
2013-12-21,38,34,32,33,30,29,90,87,81,29.83,29.53,13,7,13,1.06
2013-12-22,36,33,28,33,27,17,91,80,63,30.21,29.62,17,8,17,0.04
2013-12-23,34,24,12,22,13,2,68,63,61,30.53,30.21,18,10,18,0.00
2013-12-24,26,16,5,15,5,-5,63,62,60,30.56,30.30,18,6,18,0.00
2013-12-25,38,30,20,26,19,9,74,64,60,30.33,30.18,12,6,12,0.00
2013-12-26,50,35,23,36,26,19,87,68,58,30.33,30.21,13,6,13,0.00
2013-12-27,56,41,28,41,28,16,67,60,56,30.33,30.18,10,5,10,0.00
2013-12-28,57,43,30,41,30,19,74,60,56,30.21,29.88,13,6,13,0.00
2013-12-29,40,29,16,28,18,6,71,62,60,30.21,29.83,21,10,21,0.00
2013-12-30,32,20,9,20,9,-1,63,62,61,30.30,30.15,14,5,14,0.00
2013-12-31,44,32,20,30,20,9,64,61,59,30.36,30.12,13,6,13,0.00
2014-1-1,47,36,25,33,24,18,80,64,58,30.12,29.97,14,7,14,0.00
2014-1-2,30,19,8,20,9,-2,80,66,61,30.42,29.97,21,13,21,0.00